| time (UTC) | temp F | wind direction | speed MPH | gust MPH | rain 1hr in | rain 24hr in | rain mn in | humidity % | barometer mb |
| 20260502170514 | 55 | 240 | 2.0 | 9.0 | 0.00 | 0.04 | 0.04 | 65 | 1012.2 |
| 20260502164017 | 54 | 303 | 2.0 | 6.0 | 0.00 | 0.04 | 0.04 | 65 | 1012.3 |
| 20260502163516 | 54 | 325 | 1.0 | 8.0 | 0.00 | 0.04 | 0.04 | 68 | 1012.2 |
| 20260502163048 | 54 | 306 | 3.0 | 8.0 | 0.00 | 0.04 | 0.04 | 65 | 1012.3 |
| 20260502162519 | 54 | 305 | 2.0 | 6.0 | 0.00 | 0.04 | 0.04 | 67 | 1012.3 |
| 20260502162020 | 54 | 338 | 1.0 | 8.0 | 0.00 | 0.04 | 0.04 | 71 | 1012.2 |
| 20260502161532 | 54 | 291 | 2.0 | 8.0 | 0.00 | 0.04 | 0.04 | 67 | 1012.3 |
| 20260502161016 | 54 | 287 | 3.0 | 8.0 | 0.00 | 0.04 | 0.04 | 68 | 1012.4 |
| 20260502160518 | 55 | 325 | 1.0 | 9.0 | 0.00 | 0.04 | 0.04 | 70 | 1012.5 |
| 20260502152014 | 53 | 305 | 3.0 | 8.0 | 0.00 | 0.04 | 0.04 | 76 | 1012.2 |
| 20260502151537 | 52 | 311 | 2.0 | 6.0 | 0.00 | 0.04 | 0.04 | 75 | 1012.3 |
| 20260502151015 | 52 | 309 | 2.0 | 6.0 | 0.00 | 0.04 | 0.04 | 76 | 1012.3 |
| 20260502150514 | 52 | 309 | 2.0 | 5.0 | 0.00 | 0.04 | 0.04 | 77 | 1012.3 |
| 20260502130517 | 50 | 265 | 1.0 | 3.0 | 0.00 | 0.04 | 0.04 | 90 | 1012.9 |
| 20260502123516 | 48 | 221 | 1.0 | 3.0 | 0.00 | 0.04 | 0.04 | 92 | 1012.5 |
| 20260502123034 | 48 | 265 | 0.0 | 2.0 | 0.00 | 0.04 | 0.04 | 93 | 1012.6 |
| 20260502122515 | 48 | 0 | 0.0 | 2.0 | 0.00 | 0.04 | 0.04 | 93 | 1012.5 |
| 20260502122016 | 48 | 334 | 0.0 | 3.0 | 0.00 | 0.04 | 0.04 | 93 | 1012.3 |
| 20260502121530 | 48 | 0 | 1.0 | 3.0 | 0.00 | 0.04 | 0.04 | 93 | 1012.3 |
| 20260502121017 | 48 | 319 | 1.0 | 2.0 | 0.00 | 0.04 | 0.04 | 93 | 1012.3 |
| 20260502120517 | 48 | 316 | 1.0 | 2.0 | 0.00 | 0.04 | 0.04 | 93 | 1012.3 |
| 20260502115519 | 48 | 164 | 0.0 | 2.0 | 0.00 | 0.04 | 0.04 | 94 | 1012.5 |
| 20260502115017 | 47 | 93 | 0.0 | 2.0 | 0.00 | 0.04 | 0.04 | 93 | 1012.4 |
| 20260502114536 | 47 | 68 | 0.0 | 2.0 | 0.00 | 0.04 | 0.04 | 93 | 1012.4 |
| 20260502114017 | 47 | 26 | 0.0 | 2.0 | 0.00 | 0.04 | 0.04 | 93 | 1012.4 |
| 20260502113517 | 47 | 83 | 0.0 | 2.0 | 0.00 | 0.04 | 0.04 | 94 | 1012.4 |
| 20260502113034 | 47 | 0 | 0.0 | 2.0 | 0.00 | 0.04 | 0.04 | 94 | 1012.4 |
| 20260502112514 | 47 | 0 | 0.0 | 2.0 | 0.00 | 0.04 | 0.04 | 94 | 1012.5 |
| 20260502112016 | 47 | 93 | 0.0 | 2.0 | 0.00 | 0.04 | 0.04 | 94 | 1012.2 |
| 20260502111532 | 47 | 9 | 0.0 | 2.0 | 0.00 | 0.04 | 0.04 | 94 | 1012.1 |
| 20260502111017 | 47 | 0 | 0.0 | 2.0 | 0.00 | 0.04 | 0.04 | 94 | 1012.0 |
| 20260502110515 | 46 | 93 | 0.0 | 2.0 | 0.00 | 0.04 | 0.04 | 94 | 1012.0 |
| 20260502110036 | 46 | 51 | 0.0 | 2.0 | 0.02 | 0.04 | 0.04 | 94 | 1011.6 |
| 20260502105516 | 46 | 93 | 0.0 | 2.0 | 0.02 | 0.04 | 0.04 | 93 | 1011.7 |
| 20260502105015 | 46 | 93 | 1.0 | 2.0 | 0.03 | 0.04 | 0.04 | 93 | 1011.8 |
| 20260502104532 | 46 | 9 | 0.0 | 3.0 | 0.03 | 0.04 | 0.04 | 93 | 1011.8 |
| 20260502104016 | 46 | 330 | 1.0 | 3.0 | 0.03 | 0.04 | 0.04 | 93 | 1011.7 |
| 20260502103514 | 46 | 22 | 1.0 | 2.0 | 0.03 | 0.04 | 0.04 | 93 | 1011.7 |
| 20260502103032 | 46 | 9 | 0.0 | 2.0 | 0.03 | 0.04 | 0.04 | 93 | 1011.6 |
| 20260502102515 | 46 | 93 | 1.0 | 3.0 | 0.03 | 0.04 | 0.04 | 93 | 1011.6 |
| 20260502102016 | 46 | 105 | 0.0 | 4.0 | 0.03 | 0.04 | 0.04 | 93 | 1011.6 |
| 20260502101533 | 46 | 80 | 1.0 | 4.0 | 0.03 | 0.04 | 0.04 | 93 | 1011.8 |
| 20260502101016 | 46 | 165 | 1.0 | 4.0 | 0.03 | 0.04 | 0.04 | 93 | 1011.8 |
| 20260502100517 | 46 | 85 | 1.0 | 3.0 | 0.02 | 0.03 | 0.03 | 93 | 1011.8 |
| 20260502091534 | 46 | 325 | 1.0 | 3.0 | 0.00 | 0.01 | 0.01 | 93 | 1011.6 |
| 20260502091017 | 47 | 19 | 1.0 | 3.0 | 0.00 | 0.01 | 0.01 | 93 | 1011.5 |
| 20260502090518 | 47 | 68 | 0.0 | 2.0 | 0.00 | 0.01 | 0.01 | 93 | 1011.7 |
| 20260502071530 | 46 | 321 | 1.0 | 3.0 | 0.00 | 0.00 | 0.00 | 91 | 1011.7 |
| 20260502071018 | 46 | 9 | 0.0 | 2.0 | 0.00 | 0.00 | 0.00 | 91 | 1011.6 |
| 20260502070518 | 46 | 0 | 0.0 | 2.0 | 0.00 | 0.00 | 0.00 | 91 | 1011.6 |
| 20260502070047 | 46 | 111 | 0.0 | 2.0 | 0.00 | 0.00 | 0.00 | 91 | 1011.5 |
| 20260502065518 | 46 | 0 | 0.0 | 2.0 | 0.00 | 0.00 | 0.00 | 91 | 1011.6 |
| 20260502065016 | 46 | 51 | 0.0 | 2.0 | 0.00 | 0.00 | 0.00 | 91 | 1011.6 |
| 20260502064543 | 46 | 61 | 0.0 | 2.0 | 0.00 | 0.00 | 0.00 | 91 | 1011.5 |
| 20260502064017 | 46 | 30 | 0.0 | 2.0 | 0.00 | 0.00 | 0.00 | 90 | 1011.5 |
| 20260502063518 | 46 | 51 | 1.0 | 2.0 | 0.00 | 0.00 | 0.00 | 90 | 1011.5 |
| 20260502063030 | 46 | 0 | 0.0 | 2.0 | 0.00 | 0.00 | 0.00 | 90 | 1011.5 |
| 20260502062517 | 46 | 93 | 0.0 | 2.0 | 0.00 | 0.00 | 0.00 | 90 | 1011.6 |
| 20260502062017 | 46 | 0 | 0.0 | 2.0 | 0.00 | 0.00 | 0.00 | 89 | 1011.6 |
| 20260502061531 | 47 | 9 | 0.0 | 2.0 | 0.00 | 0.00 | 0.00 | 89 | 1011.8 |
| 20260502061014 | 47 | 325 | 0.0 | 2.0 | 0.00 | 0.00 | 0.00 | 89 | 1011.7 |
| 20260502060517 | 47 | 0 | 0.0 | 2.0 | 0.00 | 0.00 | 0.00 | 89 | 1011.7 |
| 20260502060036 | 47 | 338 | 1.0 | 2.0 | 0.00 | 0.00 | 0.00 | 89 | 1011.7 |
| 20260502055517 | 47 | 51 | 1.0 | 2.0 | 0.00 | 0.00 | 0.00 | 89 | 1011.8 |
| 20260502055018 | 47 | 76 | 0.0 | 2.0 | 0.00 | 0.00 | 0.00 | 89 | 1011.8 |
| 20260502054532 | 47 | 76 | 0.0 | 2.0 | 0.00 | 0.00 | 0.00 | 88 | 1011.8 |
| 20260502054016 | 47 | 41 | 0.0 | 2.0 | 0.00 | 0.00 | 0.00 | 88 | 1011.9 |
| 20260502053515 | 47 | 316 | 1.0 | 2.0 | 0.00 | 0.00 | 0.00 | 88 | 1011.9 |
| 20260502053034 | 48 | 0 | 0.0 | 2.0 | 0.00 | 0.00 | 0.00 | 87 | 1011.8 |
| 20260502052517 | 48 | 123 | 1.0 | 2.0 | 0.00 | 0.00 | 0.00 | 87 | 1011.7 |
| 20260502052016 | 48 | 68 | 1.0 | 2.0 | 0.00 | 0.00 | 0.00 | 87 | 1011.8 |
| 20260502051534 | 48 | 105 | 0.0 | 2.0 | 0.00 | 0.00 | 0.00 | 87 | 1011.9 |
| 20260502051016 | 48 | 9 | 0.0 | 2.0 | 0.00 | 0.00 | 0.00 | 87 | 1011.9 |
| 20260502050517 | 48 | 22 | 0.0 | 2.0 | 0.00 | 0.00 | 0.00 | 86 | 1011.7 |
| 20260502050035 | 48 | 126 | 1.0 | 2.0 | 0.00 | 0.00 | 0.00 | 86 | 1011.7 |
| 20260502045515 | 48 | 0 | 1.0 | 3.0 | 0.00 | 0.00 | 0.00 | 86 | 1011.9 |
| 20260502045019 | 48 | 108 | 0.0 | 3.0 | 0.00 | 0.00 | 0.00 | 86 | 1011.8 |
| 20260502044530 | 48 | 9 | 1.0 | 3.0 | 0.00 | 0.00 | 0.00 | 85 | 1011.7 |
| 20260502044016 | 48 | 0 | 0.0 | 3.0 | 0.00 | 0.00 | 0.00 | 85 | 1012.0 |
| 20260502043515 | 48 | 131 | 1.0 | 3.0 | 0.00 | 0.00 | 0.00 | 85 | 1011.7 |
| 20260502043030 | 48 | 111 | 1.0 | 2.0 | 0.00 | 0.00 | 0.00 | 85 | 1011.9 |
| 20260502042515 | 49 | 93 | 0.0 | 2.0 | 0.00 | 0.00 | 0.00 | 85 | 1012.1 |
| 20260502042016 | 49 | 212 | 0.0 | 3.0 | 0.00 | 0.00 | 0.00 | 85 | 1012.2 |
| 20260502041534 | 49 | 0 | 0.0 | 3.0 | 0.00 | 0.00 | 0.00 | 85 | 1012.1 |
| 20260502041016 | 49 | 0 | 1.0 | 3.0 | 0.00 | 0.00 | 0.00 | 85 | 1011.9 |
| 20260502040515 | 49 | 0 | 0.0 | 5.0 | 0.00 | 0.00 | 0.00 | 85 | 1011.9 |
| 20260502040035 | 49 | 0 | 0.0 | 5.0 | 0.00 | 0.00 | 0.00 | 85 | 1012.1 |
| 20260502035514 | 49 | 178 | 1.0 | 5.0 | 0.00 | 0.00 | 0.00 | 85 | 1012.0 |
| 20260502035016 | 48 | 108 | 1.0 | 4.0 | 0.00 | 0.00 | 0.00 | 85 | 1012.0 |
| 20260502034537 | 48 | 149 | 1.0 | 4.0 | 0.00 | 0.00 | 0.00 | 85 | 1012.0 |
| 20260502034019 | 48 | 140 | 0.0 | 2.0 | 0.00 | 0.00 | 0.00 | 85 | 1011.9 |
| 20260502033515 | 48 | 0 | 0.0 | 2.0 | 0.00 | 0.00 | 0.00 | 85 | 1011.9 |
| 20260502033031 | 48 | 71 | 0.0 | 2.0 | 0.00 | 0.00 | 0.00 | 85 | 1012.0 |
| 20260502032516 | 48 | 291 | 1.0 | 2.0 | 0.00 | 0.00 | 0.00 | 85 | 1012.1 |
| 20260502032015 | 47 | 238 | 0.0 | 4.0 | 0.00 | 0.00 | 0.00 | 85 | 1012.1 |
| 20260502031530 | 47 | 250 | 1.0 | 4.0 | 0.00 | 0.00 | 0.00 | 85 | 1012.2 |
| 20260502031016 | 47 | 123 | 0.0 | 2.0 | 0.00 | 0.00 | 0.00 | 85 | 1012.3 |
| 20260502030517 | 47 | 76 | 1.0 | 3.0 | 0.00 | 0.00 | 0.00 | 85 | 1012.4 |
| 20260502030032 | 47 | 291 | 0.0 | 3.0 | 0.00 | 0.00 | 0.00 | 85 | 1012.4 |
| 20260502025517 | 47 | 116 | 1.0 | 3.0 | 0.00 | 0.00 | 0.00 | 85 | 1012.4 |
| 20260502025016 | 47 | 137 | 1.0 | 3.0 | 0.00 | 0.00 | 0.00 | 85 | 1012.5 |
| 20260502024534 | 47 | 149 | 1.0 | 2.0 | 0.00 | 0.00 | 0.00 | 85 | 1012.5 |
| 20260502024016 | 46 | 108 | 0.0 | 2.0 | 0.00 | 0.00 | 0.00 | 85 | 1012.5 |
| 20260502023516 | 47 | 126 | 0.0 | 2.0 | 0.00 | 0.00 | 0.00 | 85 | 1012.5 |
| 20260502023030 | 47 | 0 | 0.0 | 2.0 | 0.00 | 0.00 | 0.00 | 84 | 1012.4 |
| 20260502022515 | 47 | 9 | 0.0 | 2.0 | 0.00 | 0.00 | 0.00 | 84 | 1012.3 |
| 20260502022016 | 47 | 9 | 0.0 | 2.0 | 0.00 | 0.00 | 0.00 | 83 | 1012.4 |
| 20260502021532 | 47 | 0 | 0.0 | 2.0 | 0.00 | 0.00 | 0.00 | 82 | 1012.3 |
| 20260502021017 | 47 | 319 | 0.0 | 2.0 | 0.00 | 0.00 | 0.00 | 82 | 1012.3 |
| 20260502020516 | 48 | 108 | 1.0 | 2.0 | 0.00 | 0.00 | 0.00 | 82 | 1012.3 |
| 20260502020032 | 48 | 0 | 1.0 | 2.0 | 0.00 | 0.00 | 0.00 | 82 | 1012.3 |
| 20260502015518 | 48 | 108 | 0.0 | 3.0 | 0.00 | 0.00 | 0.00 | 82 | 1012.2 |
| 20260502015017 | 48 | 105 | 0.0 | 3.0 | 0.00 | 0.00 | 0.00 | 81 | 1012.2 |
| 20260502014549 | 48 | 111 | 1.0 | 2.0 | 0.00 | 0.00 | 0.00 | 80 | 1012.3 |
| 20260502014016 | 49 | 51 | 1.0 | 2.0 | 0.00 | 0.00 | 0.00 | 80 | 1012.2 |
| 20260502013516 | 49 | 178 | 0.0 | 2.0 | 0.00 | 0.00 | 0.00 | 79 | 1012.3 |
| 20260502013032 | 49 | 123 | 0.0 | 2.0 | 0.00 | 0.00 | 0.00 | 78 | 1012.3 |
| 20260502012516 | 50 | 344 | 0.0 | 3.0 | 0.00 | 0.00 | 0.00 | 77 | 1012.3 |
| 20260502012016 | 50 | 119 | 1.0 | 3.0 | 0.00 | 0.00 | 0.00 | 76 | 1012.2 |
| 20260502011538 | 51 | 85 | 2.0 | 3.0 | 0.00 | 0.00 | 0.00 | 75 | 1012.1 |
| 20260502011016 | 51 | 57 | 1.0 | 3.0 | 0.00 | 0.00 | 0.00 | 74 | 1012.0 |
| 20260502010515 | 52 | 76 | 1.0 | 3.0 | 0.00 | 0.00 | 0.00 | 72 | 1012.1 |
| 20260502010032 | 52 | 119 | 1.0 | 2.0 | 0.00 | 0.00 | 0.00 | 72 | 1012.1 |
| 20260502005516 | 52 | 334 | 1.0 | 5.0 | 0.00 | 0.00 | 0.00 | 72 | 1012.1 |
| 20260502005014 | 52 | 30 | 1.0 | 5.0 | 0.00 | 0.00 | 0.00 | 71 | 1012.1 |
| 20260502004531 | 52 | 0 | 3.0 | 7.0 | 0.00 | 0.00 | 0.00 | 70 | 1012.1 |
| 20260502004017 | 52 | 287 | 0.0 | 7.0 | 0.00 | 0.00 | 0.00 | 70 | 1011.9 |
| 20260502003516 | 52 | 194 | 2.0 | 8.0 | 0.00 | 0.00 | 0.00 | 69 | 1011.8 |
| 20260502003034 | 53 | 215 | 2.0 | 8.0 | 0.00 | 0.00 | 0.00 | 69 | 1011.8 |
| 20260502002514 | 53 | 225 | 3.0 | 8.0 | 0.00 | 0.00 | 0.00 | 69 | 1011.7 |
| 20260502002014 | 53 | 247 | 2.0 | 8.0 | 0.00 | 0.00 | 0.00 | 69 | 1011.7 |
| 20260502001533 | 53 | 195 | 2.0 | 8.0 | 0.00 | 0.00 | 0.00 | 69 | 1011.6 |
| 20260502001014 | 53 | 137 | 3.0 | 9.0 | 0.00 | 0.00 | 0.00 | 68 | 1011.6 |
| 20260502000516 | 53 | 265 | 4.0 | 11.0 | 0.00 | 0.00 | 0.00 | 68 | 1011.6 |
| 20260502000044 | 53 | 250 | 3.0 | 11.0 | 0.00 | 0.00 | 0.00 | 68 | 1011.6 |
| 20260501235517 | 53 | 178 | 3.0 | 10.0 | 0.00 | 0.00 | 0.00 | 68 | 1011.6 |
| 20260501235016 | 53 | 226 | 4.0 | 10.0 | 0.00 | 0.00 | 0.00 | 67 | 1011.6 |
| 20260501234532 | 53 | 178 | 3.0 | 8.0 | 0.00 | 0.00 | 0.00 | 67 | 1011.5 |
| 20260501234014 | 53 | 221 | 2.0 | 9.0 | 0.00 | 0.00 | 0.00 | 66 | 1011.4 |
| 20260501233515 | 53 | 178 | 4.0 | 9.0 | 0.00 | 0.00 | 0.00 | 66 | 1011.4 |
| 20260501233034 | 53 | 214 | 2.0 | 8.0 | 0.00 | 0.00 | 0.00 | 66 | 1011.2 |
| 20260501232516 | 53 | 221 | 4.0 | 10.0 | 0.00 | 0.00 | 0.00 | 65 | 1011.2 |
| 20260501232020 | 53 | 196 | 5.0 | 10.0 | 0.00 | 0.00 | 0.00 | 65 | 1011.1 |
| 20260501231531 | 53 | 240 | 4.0 | 10.0 | 0.00 | 0.00 | 0.00 | 65 | 1011.1 |
| 20260501231016 | 53 | 198 | 4.0 | 12.0 | 0.00 | 0.00 | 0.00 | 65 | 1011.0 |
| 20260501230518 | 53 | 178 | 4.0 | 12.0 | 0.00 | 0.00 | 0.00 | 65 | 1010.9 |
| 20260501230030 | 54 | 180 | 3.0 | 10.0 | 0.00 | 0.00 | 0.00 | 65 | 1011.0 |
| 20260501225516 | 54 | 165 | 4.0 | 12.0 | 0.00 | 0.00 | 0.00 | 64 | 1010.9 |
| 20260501225015 | 54 | 198 | 4.0 | 12.0 | 0.00 | 0.00 | 0.00 | 64 | 1010.8 |
| 20260501224529 | 54 | 214 | 4.0 | 11.0 | 0.00 | 0.00 | 0.00 | 63 | 1010.8 |
| 20260501224014 | 54 | 186 | 5.0 | 11.0 | 0.00 | 0.00 | 0.00 | 63 | 1010.9 |
| 20260501223516 | 55 | 215 | 4.0 | 11.0 | 0.00 | 0.00 | 0.00 | 62 | 1010.9 |
| 20260501223032 | 55 | 216 | 4.0 | 12.0 | 0.00 | 0.00 | 0.00 | 62 | 1010.9 |
| 20260501222514 | 55 | 170 | 4.0 | 12.0 | 0.00 | 0.00 | 0.00 | 61 | 1010.9 |
| 20260501222017 | 56 | 221 | 4.0 | 12.0 | 0.00 | 0.00 | 0.00 | 60 | 1011.1 |
| 20260501221531 | 56 | 221 | 4.0 | 12.0 | 0.00 | 0.00 | 0.00 | 59 | 1011.0 |
| 20260501221015 | 56 | 203 | 7.0 | 12.0 | 0.00 | 0.00 | 0.00 | 57 | 1011.0 |
| 20260501220515 | 57 | 191 | 5.0 | 15.0 | 0.00 | 0.00 | 0.00 | 56 | 1011.0 |
| 20260501220029 | 58 | 183 | 5.0 | 15.0 | 0.00 | 0.00 | 0.00 | 54 | 1011.0 |
| 20260501215516 | 58 | 208 | 7.0 | 14.0 | 0.00 | 0.00 | 0.00 | 52 | 1010.7 |
| 20260501215016 | 59 | 151 | 6.0 | 14.0 | 0.00 | 0.00 | 0.00 | 52 | 1010.8 |
| 20260501214537 | 59 | 105 | 6.0 | 14.0 | 0.00 | 0.00 | 0.00 | 51 | 1010.7 |
| 20260501214017 | 60 | 129 | 4.0 | 13.0 | 0.00 | 0.00 | 0.00 | 51 | 1010.5 |
| 20260501213517 | 59 | 137 | 4.0 | 12.0 | 0.00 | 0.00 | 0.00 | 50 | 1010.6 |
| 20260501213032 | 60 | 232 | 4.0 | 17.0 | 0.00 | 0.00 | 0.00 | 48 | 1010.5 |
| 20260501212517 | 61 | 205 | 5.0 | 17.0 | 0.00 | 0.00 | 0.00 | 45 | 1010.3 |
| 20260501212017 | 62 | 173 | 2.0 | 12.0 | 0.00 | 0.00 | 0.00 | 43 | 1010.3 |
| 20260501211532 | 62 | 171 | 3.0 | 7.0 | 0.00 | 0.00 | 0.00 | 37 | 1010.4 |
| 20260501211018 | 62 | 187 | 3.0 | 7.0 | 0.00 | 0.00 | 0.00 | 38 | 1010.4 |
| 20260501210516 | 62 | 228 | 2.0 | 7.0 | 0.00 | 0.00 | 0.00 | 40 | 1010.4 |
| 20260501210031 | 62 | 221 | 3.0 | 8.0 | 0.00 | 0.00 | 0.00 | 39 | 1010.6 |
| 20260501205518 | 62 | 205 | 2.0 | 10.0 | 0.00 | 0.00 | 0.00 | 38 | 1010.5 |
| 20260501205017 | 63 | 221 | 4.0 | 10.0 | 0.00 | 0.00 | 0.00 | 38 | 1010.8 |
| 20260501204530 | 62 | 0 | 4.0 | 9.0 | 0.00 | 0.00 | 0.00 | 39 | 1010.8 |
| 20260501204016 | 63 | 141 | 2.0 | 5.0 | 0.00 | 0.00 | 0.00 | 37 | 1010.6 |
| 20260501203516 | 62 | 221 | 1.0 | 8.0 | 0.00 | 0.00 | 0.00 | 39 | 1010.6 |
| 20260501203035 | 62 | 309 | 3.0 | 9.0 | 0.00 | 0.00 | 0.00 | 39 | 1010.7 |
| 20260501202517 | 62 | 178 | 3.0 | 9.0 | 0.00 | 0.00 | 0.00 | 36 | 1010.8 |
| 20260501202017 | 62 | 328 | 2.0 | 7.0 | 0.00 | 0.00 | 0.00 | 39 | 1010.8 |
| 20260501201530 | 62 | 212 | 1.0 | 6.0 | 0.00 | 0.00 | 0.00 | 42 | 1010.8 |
| 20260501201017 | 62 | 30 | 2.0 | 6.0 | 0.00 | 0.00 | 0.00 | 37 | 1010.8 |
| 20260501200516 | 61 | 205 | 3.0 | 11.0 | 0.00 | 0.00 | 0.00 | 38 | 1010.8 |
| 20260501200032 | 61 | 315 | 2.0 | 11.0 | 0.00 | 0.00 | 0.00 | 40 | 1010.8 |
| 20260501195514 | 61 | 195 | 3.0 | 10.0 | 0.00 | 0.00 | 0.00 | 36 | 1010.7 |
| 20260501195017 | 61 | 178 | 2.0 | 10.0 | 0.00 | 0.00 | 0.00 | 39 | 1010.8 |
| 20260501194535 | 61 | 51 | 4.0 | 10.0 | 0.00 | 0.00 | 0.00 | 36 | 1010.8 |
| 20260501194017 | 61 | 38 | 1.0 | 10.0 | 0.00 | 0.00 | 0.00 | 39 | 1010.8 |
| 20260501193514 | 61 | 294 | 3.0 | 10.0 | 0.00 | 0.00 | 0.00 | 37 | 1010.9 |
| 20260501193034 | 61 | 296 | 2.0 | 8.0 | 0.00 | 0.00 | 0.00 | 41 | 1011.0 |
| 20260501192516 | 61 | 0 | 2.0 | 8.0 | 0.00 | 0.00 | 0.00 | 37 | 1011.0 |
| 20260501192016 | 61 | 119 | 1.0 | 8.0 | 0.00 | 0.00 | 0.00 | 37 | 1011.1 |
| 20260501191534 | 61 | 325 | 3.0 | 8.0 | 0.00 | 0.00 | 0.00 | 37 | 1011.3 |
| 20260501191017 | 61 | 282 | 3.0 | 7.0 | 0.00 | 0.00 | 0.00 | 42 | 1011.5 |
| 20260501190516 | 61 | 325 | 2.0 | 12.0 | 0.00 | 0.00 | 0.00 | 38 | 1011.5 |
| 20260501190033 | 61 | 309 | 3.0 | 12.0 | 0.00 | 0.00 | 0.00 | 38 | 1011.5 |
| 20260501185514 | 60 | 151 | 4.0 | 10.0 | 0.00 | 0.00 | 0.00 | 40 | 1011.4 |
| 20260501185016 | 60 | 202 | 4.0 | 12.0 | 0.00 | 0.00 | 0.00 | 40 | 1011.5 |
| 20260501184532 | 59 | 189 | 5.0 | 12.0 | 0.00 | 0.00 | 0.00 | 39 | 1011.6 |
| 20260501184017 | 60 | 223 | 3.0 | 9.0 | 0.00 | 0.00 | 0.00 | 41 | 1011.7 |
| 20260501183516 | 60 | 279 | 2.0 | 9.0 | 0.00 | 0.00 | 0.00 | 37 | 1011.8 |
| 20260501183044 | 60 | 309 | 3.0 | 8.0 | 0.00 | 0.00 | 0.00 | 39 | 1011.9 |
| 20260501182516 | 59 | 165 | 2.0 | 14.0 | 0.00 | 0.00 | 0.00 | 42 | 1011.9 |
| 20260501182019 | 59 | 207 | 3.0 | 14.0 | 0.00 | 0.00 | 0.00 | 42 | 1011.8 |
| 20260501181536 | 59 | 183 | 3.0 | 15.0 | 0.00 | 0.00 | 0.00 | 40 | 1011.8 |
| 20260501181016 | 59 | 23 | 2.0 | 15.0 | 0.00 | 0.00 | 0.00 | 40 | 1011.9 |
| 20260501180516 | 59 | 198 | 4.0 | 11.0 | 0.00 | 0.00 | 0.00 | 40 | 1011.9 |